{"data":{"norad_id":66902,"epoch":"2026-09-20T07:33:17.878464Z","epoch_age_seconds":99744,"freshness":"FRESH","line1":"1 66902U 25283AA  26263.31479026  .00019870  00000+0  59744-3 0  9990","line2":"2 66902  53.1590 196.5013 0001306  89.1123 271.0029 15.34411985 45693","mean_motion":15.34411985,"eccentricity":0.0001306,"inclination_deg":53.159,"raan_deg":196.5013,"arg_perigee_deg":89.1123,"mean_anomaly_deg":271.0029,"bstar":0.00059744,"rev_number":4569,"period_min":93.847025054357,"perigee_km":461.77420941007,"apogee_km":463.56102757642,"semimajor_km":6840.8046184932,"source":"CELESTRAK","updated_at":"2026-09-21T09:00:36.054387Z"}}